Time,TemperatureF,DewpointF,PressureIn,WindDirection,WindDirectionDegrees,WindSpeedMPH,WindSpeedGustMPH,Humidity,HourlyPrecipIn,Conditions,Clouds,dailyrainin,SolarRadiationWatts/m^2,SoftwareType,DateUTC
2013-06-09 00:03:00,58.3,-99.9,29.83,South,174,5.0,10.0,0,0.00,,,0.00,0,weatherlink.com 1.10,2013-06-09 07:03:00,
2013-06-09 00:18:00,58.4,-99.9,29.83,SSW,202,3.0,11.0,0,0.00,,,0.00,0,weatherlink.com 1.10,2013-06-09 07:18:00,
2013-06-09 00:33:00,58.2,-99.9,29.84,SSW,198,7.0,16.0,0,0.00,,,0.00,0,weatherlink.com 1.10,2013-06-09 07:33:00,
2013-06-09 00:48:00,58.2,-99.9,29.83,South,191,5.0,11.0,0,0.00,,,0.00,0,weatherlink.com 1.10,2013-06-09 07:48:00,
2013-06-09 01:03:00,58.1,-99.9,29.83,SSW,192,6.0,13.0,0,0.00,,,0.00,0,weatherlink.com 1.10,2013-06-09 08:03:00,
2013-06-09 01:19:00,57.9,-99.9,29.84,SSW,212,6.0,15.0,0,0.00,,,0.00,0,weatherlink.com 1.10,2013-06-09 08:19:00,
2013-06-09 01:34:00,57.9,-99.9,29.84,South,185,9.0,16.0,0,0.00,,,0.00,0,weatherlink.com 1.10,2013-06-09 08:34:00,
2013-06-09 01:49:00,57.9,-99.9,29.84,South,180,7.0,19.0,0,0.00,,,0.00,0,weatherlink.com 1.10,2013-06-09 08:49:00,
2013-06-09 02:04:00,57.7,-99.9,29.84,South,181,5.0,14.0,0,0.00,,,0.00,0,weatherlink.com 1.10,2013-06-09 09:04:00,
2013-06-09 02:19:00,57.8,-99.9,29.84,South,169,4.0,12.0,0,0.00,,,0.00,0,weatherlink.com 1.10,2013-06-09 09:19:00,
2013-06-09 02:34:00,57.7,-99.9,29.85,SSW,192,5.0,14.0,0,0.00,,,0.00,0,weatherlink.com 1.10,2013-06-09 09:34:00,
2013-06-09 02:49:00,57.8,-99.9,29.85,South,182,5.0,14.0,0,0.00,,,0.00,0,weatherlink.com 1.10,2013-06-09 09:49:00,
2013-06-09 03:04:00,57.7,-99.9,29.85,South,186,6.0,15.0,0,0.00,,,0.00,0,weatherlink.com 1.10,2013-06-09 10:04:00,
2013-06-09 03:20:00,57.8,-99.9,29.85,SSW,202,9.0,13.0,0,0.00,,,0.00,0,weatherlink.com 1.10,2013-06-09 10:20:00,
2013-06-09 03:34:00,57.7,-99.9,29.84,South,186,8.0,11.0,0,0.00,,,0.00,0,weatherlink.com 1.10,2013-06-09 10:34:00,
2013-06-09 03:50:00,57.6,-99.9,29.84,South,172,6.0,8.0,0,0.00,,,0.00,0,weatherlink.com 1.10,2013-06-09 10:50:00,
2013-06-09 04:05:00,57.5,-99.9,29.84,SSW,203,6.0,12.0,0,0.00,,,0.00,0,weatherlink.com 1.10,2013-06-09 11:05:00,
2013-06-09 04:20:00,57.5,-99.9,29.84,SSE,167,5.0,11.0,0,0.00,,,0.00,0,weatherlink.com 1.10,2013-06-09 11:20:00,
2013-06-09 04:35:00,57.6,-99.9,29.84,South,186,2.0,11.0,0,0.00,,,0.00,0,weatherlink.com 1.10,2013-06-09 11:35:00,
2013-06-09 04:51:00,57.7,-99.9,29.84,South,180,2.0,11.0,0,0.00,,,0.00,0,weatherlink.com 1.10,2013-06-09 11:51:00,
2013-06-09 05:06:00,57.6,-99.9,29.84,SSW,197,5.0,9.0,0,0.00,,,0.00,0,weatherlink.com 1.10,2013-06-09 12:06:00,
2013-06-09 05:21:00,57.7,-99.9,29.84,SSW,201,5.0,10.0,0,0.00,,,0.00,0,weatherlink.com 1.10,2013-06-09 12:21:00,
2013-06-09 05:36:00,57.6,-99.9,29.85,South,180,2.0,11.0,0,0.00,,,0.00,0,weatherlink.com 1.10,2013-06-09 12:36:00,
2013-06-09 05:51:00,57.6,-99.9,29.85,South,188,8.0,9.0,0,0.00,,,0.00,0,weatherlink.com 1.10,2013-06-09 12:51:00,
2013-06-09 06:06:00,57.6,-99.9,29.85,SSW,207,2.0,9.0,0,0.00,,,0.00,5,weatherlink.com 1.10,2013-06-09 13:06:00,
2013-06-09 06:22:00,57.9,-99.9,29.86,SSW,197,5.0,10.0,0,0.00,,,0.00,14,weatherlink.com 1.10,2013-06-09 13:22:00,
2013-06-09 06:36:00,57.7,-99.9,29.86,SSW,200,7.0,11.0,0,0.00,,,0.00,21,weatherlink.com 1.10,2013-06-09 13:36:00,
2013-06-09 06:52:00,57.5,-99.9,29.86,South,178,4.0,9.0,0,0.00,,,0.00,28,weatherlink.com 1.10,2013-06-09 13:52:00,
2013-06-09 07:07:00,57.5,-99.9,29.86,SSW,213,9.0,9.0,0,0.00,,,0.00,39,weatherlink.com 1.10,2013-06-09 14:07:00,
2013-06-09 07:22:00,57.3,-99.9,29.86,South,172,5.0,10.0,0,0.00,,,0.00,53,weatherlink.com 1.10,2013-06-09 14:22:00,
2013-06-09 07:37:00,57.6,-99.9,29.86,South,187,6.0,10.0,0,0.00,,,0.00,84,weatherlink.com 1.10,2013-06-09 14:37:00,
2013-06-09 07:52:00,57.7,-99.9,29.86,SSW,200,7.0,13.0,0,0.00,,,0.00,83,weatherlink.com 1.10,2013-06-09 14:52:00,
2013-06-09 08:08:00,57.9,-99.9,29.87,SSW,193,7.0,11.0,0,0.00,,,0.00,113,weatherlink.com 1.10,2013-06-09 15:08:00,
2013-06-09 08:23:00,58.2,-99.9,29.87,SSW,194,6.0,10.0,0,0.00,,,0.00,125,weatherlink.com 1.10,2013-06-09 15:23:00,
2013-06-09 08:38:00,58.4,-99.9,29.88,South,186,7.0,14.0,0,0.00,,,0.00,155,weatherlink.com 1.10,2013-06-09 15:38:00,
2013-06-09 08:52:00,58.6,-99.9,29.88,South,186,6.0,11.0,0,0.00,,,0.00,174,weatherlink.com 1.10,2013-06-09 15:52:00,
2013-06-09 09:08:00,58.9,-99.9,29.88,SSW,211,14.0,14.0,0,0.00,,,0.00,179,weatherlink.com 1.10,2013-06-09 16:08:00,
2013-06-09 09:22:00,59.0,-99.9,29.88,SSW,203,8.0,14.0,0,0.00,,,0.00,137,weatherlink.com 1.10,2013-06-09 16:22:00,
2013-06-09 09:39:00,59.3,-99.9,29.88,SSW,203,8.0,15.0,0,0.00,,,0.00,151,weatherlink.com 1.10,2013-06-09 16:39:00,
2013-06-09 09:54:00,59.6,-99.9,29.88,SSW,200,12.0,19.0,0,0.00,,,0.00,292,weatherlink.com 1.10,2013-06-09 16:54:00,
2013-06-09 10:09:00,60.2,-99.9,29.88,SW,221,2.0,14.0,0,0.00,,,0.00,253,weatherlink.com 1.10,2013-06-09 17:09:00,
2013-06-09 10:24:00,60.4,-99.9,29.89,SSW,202,5.0,15.0,0,0.00,,,0.00,292,weatherlink.com 1.10,2013-06-09 17:24:00,
2013-06-09 10:39:00,60.9,-99.9,29.89,South,184,12.0,15.0,0,0.00,,,0.00,287,weatherlink.com 1.10,2013-06-09 17:39:00,
2013-06-09 10:53:00,60.1,-99.9,29.89,South,175,7.0,14.0,0,0.00,,,0.00,271,weatherlink.com 1.10,2013-06-09 17:53:00,
2013-06-09 11:09:00,61.0,-99.9,29.90,SSE,163,7.0,15.0,0,0.00,,,0.00,626,weatherlink.com 1.10,2013-06-09 18:09:00,
2013-06-09 11:26:00,60.8,-99.9,29.89,SSW,201,10.0,14.0,0,0.00,,,0.00,360,weatherlink.com 1.10,2013-06-09 18:26:00,
2013-06-09 11:40:00,61.7,-99.9,29.90,SSW,193,6.0,13.0,0,0.00,,,0.00,489,weatherlink.com 1.10,2013-06-09 18:40:00,
2013-06-09 11:55:00,61.7,-99.9,29.90,SSE,161,8.0,14.0,0,0.00,,,0.00,445,weatherlink.com 1.10,2013-06-09 18:55:00,
2013-06-09 12:11:00,62.9,-99.9,29.90,SW,215,6.0,14.0,0,0.00,,,0.00,415,weatherlink.com 1.10,2013-06-09 19:11:00,
2013-06-09 12:25:00,63.6,-99.9,29.91,South,178,12.0,15.0,0,0.00,,,0.00,512,weatherlink.com 1.10,2013-06-09 19:25:00,
2013-06-09 12:40:00,62.4,-99.9,29.90,SE,143,7.0,15.0,0,0.00,,,0.00,545,weatherlink.com 1.10,2013-06-09 19:40:00,
2013-06-09 12:56:00,63.0,-99.9,29.90,SSW,200,9.0,13.0,0,0.00,,,0.00,392,weatherlink.com 1.10,2013-06-09 19:56:00,
2013-06-09 13:11:00,61.3,-99.9,29.90,SW,215,11.0,14.0,0,0.00,,,0.00,278,weatherlink.com 1.10,2013-06-09 20:11:00,
2013-06-09 13:26:00,60.3,-99.9,29.90,SW,222,14.0,14.0,0,0.00,,,0.00,248,weatherlink.com 1.10,2013-06-09 20:26:00,
2013-06-09 13:41:00,59.8,-99.9,29.90,SW,231,9.0,14.0,0,0.00,,,0.00,262,weatherlink.com 1.10,2013-06-09 20:41:00,
2013-06-09 13:56:00,59.7,-99.9,29.90,SW,223,12.0,14.0,0,0.00,,,0.00,197,weatherlink.com 1.10,2013-06-09 20:56:00,
2013-06-09 14:11:00,59.8,-99.9,29.89,SSW,213,10.0,14.0,0,0.00,,,0.00,322,weatherlink.com 1.10,2013-06-09 21:11:00,
2013-06-09 14:26:00,59.9,-99.9,29.89,SW,221,8.0,13.0,0,0.00,,,0.00,193,weatherlink.com 1.10,2013-06-09 21:26:00,
2013-06-09 14:42:00,60.4,-99.9,29.89,SW,216,10.0,15.0,0,0.00,,,0.00,339,weatherlink.com 1.10,2013-06-09 21:42:00,
2013-06-09 14:57:00,60.3,-99.9,29.89,SW,220,9.0,15.0,0,0.00,,,0.00,309,weatherlink.com 1.10,2013-06-09 21:57:00,
2013-06-09 15:11:00,60.5,-99.9,29.88,SSW,205,12.0,15.0,0,0.00,,,0.00,227,weatherlink.com 1.10,2013-06-09 22:11:00,
2013-06-09 15:27:00,60.6,-99.9,29.89,SW,225,10.0,15.0,0,0.00,,,0.00,202,weatherlink.com 1.10,2013-06-09 22:27:00,
2013-06-09 15:42:00,60.6,-99.9,29.88,SW,222,11.0,12.0,0,0.00,,,0.00,269,weatherlink.com 1.10,2013-06-09 22:42:00,
2013-06-09 15:57:00,60.2,-99.9,29.88,SSW,196,12.0,16.0,0,0.00,,,0.00,315,weatherlink.com 1.10,2013-06-09 22:57:00,
2013-06-09 16:13:00,60.7,-99.9,29.87,SSW,207,11.0,18.0,0,0.00,,,0.00,229,weatherlink.com 1.10,2013-06-09 23:13:00,
2013-06-09 16:28:00,60.6,-99.9,29.87,SW,229,11.0,16.0,0,0.00,,,0.00,499,weatherlink.com 1.10,2013-06-09 23:28:00,
2013-06-09 16:43:00,61.2,-99.9,29.87,SSW,208,10.0,18.0,0,0.00,,,0.00,322,weatherlink.com 1.10,2013-06-09 23:43:00,
2013-06-09 16:58:00,61.7,-99.9,29.87,SSW,210,12.0,14.0,0,0.00,,,0.00,559,weatherlink.com 1.10,2013-06-09 23:58:00,
2013-06-09 17:13:00,62.5,-99.9,29.87,SSW,211,11.0,18.0,0,0.00,,,0.00,199,weatherlink.com 1.10,2013-06-10 00:13:00,
2013-06-09 17:28:00,61.1,-99.9,29.87,SW,221,13.0,16.0,0,0.00,,,0.00,425,weatherlink.com 1.10,2013-06-10 00:28:00,
2013-06-09 17:43:00,61.3,-99.9,29.87,SW,219,12.0,14.0,0,0.00,,,0.00,577,weatherlink.com 1.10,2013-06-10 00:43:00,
2013-06-09 17:58:00,62.4,-99.9,29.87,WSW,237,12.0,16.0,0,0.00,,,0.00,628,weatherlink.com 1.10,2013-06-10 00:58:00,
2013-06-09 18:13:00,61.5,-99.9,29.86,SW,229,9.0,15.0,0,0.00,,,0.00,543,weatherlink.com 1.10,2013-06-10 01:13:00,
2013-06-09 18:28:00,61.1,-99.9,29.86,SSW,210,11.0,15.0,0,0.00,,,0.00,155,weatherlink.com 1.10,2013-06-10 01:28:00,
2013-06-09 18:43:00,60.0,-99.9,29.86,SSW,196,13.0,14.0,0,0.00,,,0.00,262,weatherlink.com 1.10,2013-06-10 01:43:00,
2013-06-09 18:58:00,60.1,-99.9,29.86,SW,215,6.0,12.0,0,0.00,,,0.00,162,weatherlink.com 1.10,2013-06-10 01:58:00,
2013-06-09 19:13:00,60.2,-99.9,29.87,SSW,198,4.0,11.0,0,0.00,,,0.00,54,weatherlink.com 1.10,2013-06-10 02:13:00,
2013-06-09 19:28:00,59.5,-99.9,29.86,SW,226,10.0,10.0,0,0.00,,,0.00,42,weatherlink.com 1.10,2013-06-10 02:28:00,
2013-06-09 19:44:00,58.8,-99.9,29.86,SSW,213,8.0,11.0,0,0.00,,,0.00,26,weatherlink.com 1.10,2013-06-10 02:44:00,
2013-06-09 19:59:00,58.4,-99.9,29.86,South,188,6.0,10.0,0,0.00,,,0.00,18,weatherlink.com 1.10,2013-06-10 02:59:00,
2013-06-09 20:14:00,58.0,-99.9,29.86,SW,217,4.0,11.0,0,0.00,,,0.00,7,weatherlink.com 1.10,2013-06-10 03:14:00,
2013-06-09 20:29:00,57.9,-99.9,29.86,SW,223,8.0,10.0,0,0.00,,,0.00,0,weatherlink.com 1.10,2013-06-10 03:29:00,
2013-06-09 20:44:00,57.8,-99.9,29.86,SSW,205,7.0,10.0,0,0.00,,,0.00,0,weatherlink.com 1.10,2013-06-10 03:44:00,
2013-06-09 20:59:00,57.9,-99.9,29.86,SSW,209,7.0,9.0,0,0.00,,,0.00,0,weatherlink.com 1.10,2013-06-10 03:59:00,
2013-06-09 21:14:00,57.7,-99.9,29.87,SW,223,6.0,10.0,0,0.00,,,0.00,0,weatherlink.com 1.10,2013-06-10 04:14:00,
2013-06-09 21:29:00,57.7,-99.9,29.87,SSW,202,4.0,8.0,0,0.00,,,0.00,0,weatherlink.com 1.10,2013-06-10 04:29:00,
2013-06-09 21:44:00,58.0,-99.9,29.87,SSW,198,2.0,8.0,0,0.00,,,0.00,0,weatherlink.com 1.10,2013-06-10 04:44:00,
2013-06-09 21:59:00,58.0,-99.9,29.87,SSW,203,6.0,8.0,0,0.00,,,0.00,0,weatherlink.com 1.10,2013-06-10 04:59:00,
2013-06-09 22:14:00,57.7,-99.9,29.87,SW,219,6.0,9.0,0,0.00,,,0.00,0,weatherlink.com 1.10,2013-06-10 05:14:00,
2013-06-09 22:29:00,58.0,-99.9,29.88,SSW,202,3.0,10.0,0,0.00,,,0.00,0,weatherlink.com 1.10,2013-06-10 05:29:00,
2013-06-09 22:44:00,58.2,-99.9,29.89,South,176,2.0,6.0,0,0.00,,,0.00,0,weatherlink.com 1.10,2013-06-10 05:44:00,
2013-06-09 23:00:00,58.0,-99.9,29.88,SSW,199,1.0,7.0,0,0.00,,,0.00,0,weatherlink.com 1.10,2013-06-10 06:00:00,
2013-06-09 23:15:00,57.6,-99.9,29.87,SSW,209,6.0,7.0,0,0.00,,,0.00,0,weatherlink.com 1.10,2013-06-10 06:15:00,
2013-06-09 23:30:00,58.1,-99.9,29.88,South,187,1.0,6.0,0,0.00,,,0.00,0,weatherlink.com 1.10,2013-06-10 06:30:00,
2013-06-09 23:45:00,58.1,-99.9,29.88,SSW,201,7.0,7.0,0,0.00,,,0.00,0,weatherlink.com 1.10,2013-06-10 06:45:00,